STARLINK-31055, 58539

Orbit data source: Space-Track

STARLINK-31055, 58539 is a payload satellite owned by SpaceX/Seattle (US) in LEO that was launched on Fri, 08 Dec 2023 UTC via an FALCON 9 launch vehicle from the Air Force Western Test Range (AFWTR). Payload-class satellites include a variety of spacecraft equipped with specific instruments for various scientific and technological missions. These include communications satellites like Starlink; space stations such as the ISS; scientific satellites like the Hubble; Earth observation satellites from companies like Planet Labs, Umbra, and HawkEye 360; GPS; miniature CubeSats for education and research; and military/defense satellites.

Loading next visibility...
Identifier
58539, 2023-192J
Orbit
LEO
Country
Flag of USUS
Related business
Manufacturer
SpaceX/Seattle
Mission
Operational Commercial Communications
Bus & Motor
STARLINK V2M, Unknown motor
Mass
730 kg wet, ~700 kg dry
Launch date (UTC)
2023-12-08 (3 years ago)
Launch vehicle
FALCON 9
Launch site
Air Force Western Test Range (AFWTR)
Object type
Payload
Rocket body
Debris
Shape & HBR
Box + 2 Pan, 17.7 m
Radar Cross Section
33.884 m², Large (>1 m²)

Expand to show TLE details & history
Last TLE update: 3 days ago

TLE from 3 days ago
0 STARLINK-31055
1 58539U 23192J   26170.82082700  .00001537  00000-0  56601-4 0  9998
2 58539  53.1605 306.8258 0001184  79.6560 280.4576 15.34406540141641
Epoch: 2026-06-19T19:41Z
TLE epoch observation values (Epoch: 2026-06-19T19:41:59.452Z)
Latitude
-0.00004°
Longitude
103.28374°
Altitude
463.438 km
Speed
7.636 km/s
True Right ascension
20h 27m 18s
True Declination
0° 00' 00"
Sunlit
Object was in full shadow at epoch
Visualization orbit readout
Latitude
Unknown
Longitude
Unknown
Altitude
Unknown
Speed
Unknown
Apparent Right ascension
Unknown
Apparent Declination
Unknown
Sunlit
N/A
Visualization observer readout
Local Sidereal Time
21:30:53
Azimuth
Unknown
Elevation
Unknown
Doppler factor
Unknown
Orbital elements
Apogee altitude
463.751 km
Perigee altitude
462.131 km
Semi-major axis
6,841.078 km
Eccentricity
0.00012
Inclination
53.1605°
RAAN
306.8258°
Arg. of periapsis
79.656°
True anomaly
280.44426°
Mean anomaly
280.4576°
Eccentric anomaly
280.45093°
Mean motion
3.8358 °/min
Orbital period
93.85 mins
BSTAR
0.000056601
Loading maneuver chart data...
Computing Atmospheric mass density...
Loading historical data...
Loading historical data...
Loading historical data...
Loading historical data...
Loading historical data...
Loading historical data...
Loading historical data...

Documentation

Showing up to 5 results
|